Change the Weather History Date:

Thursday, February 14, 2013

  Actual Average Record
Temperature  
Mean Temperature 81 °F -  
Max Temperature 90 °F 82 °F 90 °F (2013)
Min Temperature 72 °F 70 °F 55 °F (2006)
Cooling Degree Days 16    
Growing Degree Days 31 (Base 50)    
Moisture  
Dew Point 72 °F    
Average Humidity 72    
Maximum Humidity 94    
Minimum Humidity 48    
Precipitation  
Precipitation 0.00 in - - ()
Sea Level Pressure  
Sea Level Pressure 29.90 in    
Wind  
Wind Speed 5 mph ()    
Max Wind Speed 12 mph    
Max Gust Speed -    
Visibility 6.5 miles    
Events      
Averages and records for this station are not official NWS values.
T = Trace of Precipitation, MM = Missing Value Source: Averaged Metar Reports

Daily Weather History Graph

Daily Weather History Graph

Search for Another Location

Airport or City:

Trip Planner

Search our weather history database for the weather conditions in past years. The results will help you decide how hot, cold, wet, or windy it might be!

Date:

Astronomy

Feb. 14, 2013 Rise Set
Actual Time 6:21 AM CST 5:53 PM CST
Civil Twilight 5:58 AM CST 6:16 PM CST
Nautical Twilight 5:33 AM CST 6:41 PM CST
Astronomical Twilight 5:07 AM CST 7:07 PM CST
Moon 9:10 AM CST (2/14) 10:04 PM CST (2/14)
Length of Visible Light 12h 17m
Length of Day
11h 32m
Waxing Crescent, 22% of the Moon is Illuminated
Feb 14
Waxing Crescent
Feb 17
First Quarter
Feb 25
Full
Mar 4
Last Quarter
Mar 11
New

Hourly Weather History & Observations

Time (CST) Temp. Heat Index Dew Point Humidity Pressure Visibility Wind Dir Wind Speed Gust Speed Precip Events Conditions
2:50 AM 79 °F - 74 °F 82% 29.86 in 5 mi ESE 6.7 mph - -   Partly Cloudy
5:50 AM 74 °F - 73 °F 94% 29.91 in 5 mi NNW 2.2 mph - -   Partly Cloudy
6:00 AM 73.4 °F - 64.4 °F 73% 29.90 in 7.0 mi Calm Calm - N/A   Mostly Cloudy
6:45 AM 73.4 °F - 64.4 °F 73% 29.89 in 7.0 mi Calm Calm - N/A   Scattered Clouds
7:40 AM 75.2 °F - 68.0 °F 78% 29.91 in 7.0 mi East 11.5 mph - N/A   Mostly Cloudy
8:40 AM 77.0 °F - 69.8 °F 78% 29.93 in 7.0 mi East 9.2 mph - N/A   Scattered Clouds
8:50 AM 80 °F - 75 °F 80% 29.94 in 6 mi North 2.2 mph - -   Partly Cloudy
9:45 AM 82.4 °F 88.2 °F 73.4 °F 74% 29.94 in 7.0 mi East 6.9 mph - N/A   Scattered Clouds
10:45 AM 84.2 °F 92.3 °F 75.2 °F 74% 29.94 in 7.0 mi East 9.2 mph - N/A   Scattered Clouds
11:40 AM 84.2 °F 92.3 °F 75.2 °F 74% 29.93 in 7.0 mi East 11.5 mph - N/A   Mostly Cloudy
11:50 AM 88 °F - 73 °F 53% 29.94 in 6 mi SE 6.7 mph - -   Partly Cloudy
12:40 PM 84.2 °F 92.3 °F 75.2 °F 74% 29.90 in 7.0 mi East 9.2 mph - N/A   Mostly Cloudy
1:40 PM 86.0 °F 95.1 °F 75.2 °F 70% 29.87 in 7.0 mi East 11.5 mph - N/A   Mostly Cloudy
2:43 PM 86.0 °F 95.1 °F 75.2 °F 70% 29.86 in 7.0 mi ESE 5.8 mph - N/A   Mostly Cloudy
2:45 PM 90 °F - 73 °F 48% 29.87 in 6 mi ESE 6.7 mph - -   Scattered Clouds
3:45 PM 84.2 °F 90.9 °F 73.4 °F 70% 29.85 in 7.0 mi ESE 9.2 mph - N/A   Mostly Cloudy
4:55 PM 82.4 °F 87.2 °F 71.6 °F 70% 29.86 in 7.0 mi ESE 9.2 mph - N/A   Scattered Clouds
5:40 PM 82.4 °F 87.2 °F 71.6 °F 70% 29.87 in 7.0 mi SE 6.9 mph - N/A   Scattered Clouds
5:45 PM 83 °F - 73 °F 64% 29.88 in 6 mi ESE 4.5 mph - -   Scattered Clouds
6:46 PM 80.6 °F 83.2 °F 68.0 °F 65% 29.87 in 7.0 mi ESE 9.2 mph - N/A   Scattered Clouds
7:45 PM 80.6 °F 83.2 °F 68.0 °F 65% 29.89 in 7.0 mi ESE 6.9 mph - N/A   Scattered Clouds
8:45 PM 78.8 °F - 66.2 °F 65% 29.90 in 7.0 mi East 9.2 mph - N/A   Scattered Clouds
8:50 PM 80 °F - 72 °F 71% 29.91 in 5 mi ESE 4.5 mph - -   Scattered Clouds
11:50 PM 75 °F - 71 °F 84% 29.90 in 5 mi SW 2.2 mph - -   Scattered Clouds